Wind_Speed
21 21 21 21 22 22 21 21 22 23 23 23 22 21 21 21 21 21 21 21 22 21 21 21 21 20 20 20 20 20 20 19 19 18 18 18 17 17 17 17 17 17 17
22 22 22 22 23 23 23 22 22 23 23 22 22 21 21 22 22 21 21 21 21 21 21 21 21 21 21 21 21 20 20 20 19 18 18 19 18 18 18 18 18 17 17
23 22 23 23 23 23 23 23 23 23 23 23 22 22 22 22 22 22 22 21 21 21 21 21 22 22 22 22 21 21 20 20 20 19 19 19 19 19 19 18 18 18 18
24 24 23 23 23 24 24 24 24 24 24 24 23 23 23 23 23 23 22 22 21 22 22 22 22 22 22 23 22 22 21 21 21 20 20 20 20 20 19 19 19 18 18
25 25 25 25 25 25 25 24 25 25 25 24 24 24 24 24 24 24 23 22 22 22 22 22 23 22 22 23 23 23 23 22 22 22 21 21 20 20 20 20 20 19 19
26 26 26 25 25 25 25 25 25 25 25 25 25 25 25 25 25 24 24 23 24 23 22 22 23 22 22 23 23 23 23 22 22 22 22 21 21 22 21 20 20 20 19
27 27 27 27 26 26 26 26 26 26 26 26 26 26 26 26 26 25 25 24 24 23 23 23 23 23 22 22 23 23 22 22 23 23 23 23 22 23 23 22 21 21 21
28 28 28 28 28 28 28 28 28 27 27 27 27 27 27 27 27 26 26 26 25 24 24 24 24 23 23 23 23 23 23 23 23 24 24 24 24 23 23 23 22 22 22
29 29 29 29 29 29 29 29 29 28 28 29 28 28 28 28 28 27 27 27 26 25 25 25 25 24 25 25 25 24 24 25 25 25 25 25 25 24 24 24 23 23 23
30 30 30 30 30 30 30 30 30 30 29 29 29 29 28 28 28 27 28 27 27 26 26 26 25 25 25 26 26 26 26 26 26 26 26 26 25 26 26 26 26 25 24
31 31 31 31 31 32 32 32 32 31 31 30 30 29 29 28 28 28 28 28 27 27 28 27 27 27 27 27 27 27 27 28 28 27 27 27 27 27 27 27 27 27 26
32 33 32 33 33 33 33 32 32 32 32 31 31 30 30 29 29 28 28 29 29 29 28 28 28 28 29 29 29 29 29 29 29 29 29 29 29 29 29 29 30 29 29
33 33 33 33 34 34 34 33 32 32 32 32 32 31 30 30 30 29 29 29 29 30 29 29 29 29 30 30 30 31 31 31 31 31 31 31 31 31 31 31 31 32 32
34 34 34 34 34 34 35 34 33 33 33 33 32 32 31 31 31 30 31 31 31 31 31 31 31 32 32 32 32 32 32 32 33 33 33 33 33 33 33 33 34 34 34
34 33 33 34 34 34 34 34 34 34 34 34 33 33 32 31 31 30 31 31 31 31 32 32 32 33 33 33 33 33 33 34 34 34 34 34 34 35 35 36 36 36 36
33 33 32 32 33 33 33 33 33 33 34 34 33 33 33 33 32 33 33 33 32 32 32 32 33 33 33 33 33 34 34 34 34 35 35 35 35 36 36 36 37 37 37
33 33 32 32 33 34 34 34 33 33 33 33 32 33 33 33 33 34 34 34 33 33 33 34 34 34 34 34 34 34 35 35 35 35 35 36 36 37 37 37 37 37 37
33 33 33 33 33 34 34 34 34 33 34 33 32 33 33 32 32 33 33 34 35 35 34 34 35 36 35 35 35 35 36 36 36 36 36 36 37 37 37 37 38 38 37
34 34 34 34 34 34 33 33 32 33 33 32 32 32 32 32 32 32 33 34 35 35 36 36 36 36 36 36 36 36 37 37 37 37 37 37 37 37 37 37 37 38 38
34 34 34 34 34 33 32 32 31 32 32 32 32 32 31 32 32 33 33 34 35 35 36 36 36 36 36 36 37 37 37 37 37 38 37 37 38 38 38 38 38 38 38
34 34 34 34 34 33 32 32 32 31 31 31 31 32 32 33 34 34 35 35 35 35 35 35 35 35 35 36 36 37 37 37 37 38 38 38 38 39 39 39 39 39 39
33 33 33 34 33 32 32 32 32 32 32 32 32 32 33 34 34 35 35 34 34 34 35 35 34 34 35 35 36 36 37 37 38 38 39 39 39 39 39 39 39 39 39
33 33 33 32 32 33 32 32 32 32 32 32 33 33 34 34 34 34 34 33 33 33 34 34 34 34 35 35 35 36 37 37 37 37 38 39 39 39 39 39 39 38 38
34 34 34 34 34 33 33 33 33 33 34 34 34 34 34 35 34 34 33 33 33 33 33 33 33 34 35 35 36 36 36 37 37 37 38 38 38 38 38 38 38 37 37
34 34 33 33 33 33 33 33 33 33 33 34 34 34 34 33 33 32 32 32 33 33 33 32 32 33 33 34 35 35 35 35 36 37 37 37 37 37 36 36 36 36 36
34 34 33 33 33 33 33 33 33 33 33 33 33 33 33 33 32 31 31 31 31 31 31 31 31 31 31 32 33 34 34 34 34 35 35 35 35 35 36 35 35 35 35
Wind_Direction
295 295 294 294 294 295 295 297 297 298 297 294 295 293 290 289 288 288 289 289 287 286 285 282 281 281 280 281 280 280 279 279 276 274 272 270 272 273 272 271 271 270 271
294 294 293 292 293 294 295 296 297 298 297 296 296 294 292 290 288 288 288 288 288 287 285 283 281 279 279 279 278 279 277 276 276 273 271 269 270 271 273 272 270 270 271
295 294 292 292 293 294 294 295 297 298 297 296 295 293 292 291 288 287 287 286 286 286 285 283 281 279 279 278 277 277 276 274 273 272 270 268 270 271 272 271 270 270 271
292 292 292 292 292 293 294 295 296 296 296 297 296 294 292 290 289 288 287 286 285 285 284 283 281 280 278 277 277 276 275 273 271 270 269 268 269 270 271 272 271 272 273
290 290 291 291 291 292 293 294 295 296 297 296 295 294 292 290 289 287 285 284 284 284 283 283 281 279 277 276 275 274 275 273 272 271 268 268 267 268 269 271 270 273 273
289 289 290 291 291 291 291 292 294 295 296 296 294 293 292 290 287 286 284 282 283 284 282 282 282 280 278 276 274 273 273 273 272 272 270 268 267 267 268 270 271 271 272
289 289 289 289 289 290 290 291 292 293 294 294 293 292 291 289 286 284 283 282 282 282 281 281 281 279 277 277 274 272 272 272 272 271 271 271 270 268 266 268 270 271 271
289 288 288 288 288 288 289 290 291 292 291 291 292 291 289 287 286 283 281 281 282 281 280 280 278 277 276 275 274 272 272 271 270 270 271 272 272 270 267 267 269 270 270
289 288 288 287 286 286 288 289 290 291 291 290 290 291 289 287 284 282 281 280 279 280 279 279 278 276 274 273 272 272 272 271 271 271 270 270 270 269 269 268 269 270 271
288 288 288 287 286 286 287 288 288 290 291 290 289 289 288 286 284 282 280 279 277 278 278 278 277 276 275 273 273 272 271 271 270 270 270 269 269 269 269 269 268 269 270
287 288 287 287 286 286 286 287 288 288 289 289 288 288 286 284 282 281 280 279 278 278 277 277 276 275 275 274 273 272 272 271 270 270 270 270 268 269 271 270 269 268 270
288 288 287 287 286 285 285 286 287 287 288 288 288 287 286 284 281 279 278 277 277 278 278 277 275 274 275 274 274 273 272 272 271 270 270 270 270 270 271 271 270 270 271
288 288 287 286 286 286 286 286 287 287 288 288 287 286 285 283 281 278 277 277 276 277 278 276 275 274 274 274 273 273 272 271 271 271 270 269 268 269 269 270 270 271 272
289 288 287 287 287 287 287 287 287 288 287 288 287 286 285 283 281 278 277 277 277 277 277 277 276 275 275 275 273 272 272 272 271 271 271 270 269 269 270 270 271 271 271
289 289 288 288 288 288 287 287 287 287 287 288 288 286 285 283 280 279 278 278 277 276 277 277 276 275 275 274 273 272 272 272 271 271 271 270 270 271 271 271 271 271 271
291 290 289 289 289 289 287 286 286 287 287 288 288 287 285 284 281 279 278 278 278 278 277 276 276 275 275 274 273 273 273 273 272 273 272 271 271 271 272 271 272 271 271
291 290 290 289 290 289 288 286 285 286 287 287 287 286 285 284 282 281 279 279 279 279 277 277 276 275 275 275 274 274 274 273 273 273 273 272 272 272 272 272 272 271 270
291 291 290 290 291 289 288 287 285 285 286 287 287 287 285 284 283 282 280 279 279 278 277 277 276 275 275 275 274 274 274 274 273 273 273 272 272 273 273 273 272 272 271
291 291 291 291 292 291 289 289 289 287 286 287 288 288 287 285 285 284 282 281 280 278 277 276 276 275 275 275 275 274 275 274 274 274 274 273 273 273 274 274 273 272 270
292 292 292 291 292 292 291 290 289 288 287 287 288 288 287 286 285 285 285 284 282 279 277 277 277 276 275 275 275 275 275 275 274 274 274 274 273 274 274 274 273 272 270
293 292 291 292 292 292 292 291 290 288 288 288 289 288 288 287 287 287 286 285 284 282 280 279 278 276 275 275 275 275 275 275 274 274 275 275 275 275 275 274 273 272 269
292 292 292 291 291 291 291 291 290 289 288 287 288 288 288 288 287 287 287 286 285 283 282 281 279 277 276 275 276 276 276 275 275 276 276 276 276 276 276 275 273 272 270
291 291 292 292 292 292 291 291 291 291 290 289 289 288 288 288 287 286 286 286 286 285 283 281 279 277 276 276 277 278 278 277 276 276 277 277 277 276 275 274 272 272 270
292 292 291 291 292 292 292 291 291 291 290 288 288 289 288 288 287 286 286 286 285 285 284 282 280 279 279 279 279 279 280 279 278 277 276 277 276 276 274 273 272 271 271
292 291 291 292 292 292 292 292 291 291 290 290 289 289 289 288 287 286 287 286 286 285 284 284 283 282 281 281 281 281 281 281 280 278 277 276 276 275 274 272 272 271 271
292 292 292 293 293 293 293 292 292 291 291 290 290 289 289 289 287 286 287 287 286 285 284 285 285 284 283 283 283 283 283 283 282 280 278 277 276 275 273 272 271 271 271
Height
5806 5805 5804 5802 5801 5800 5798 5797 5795 5794 5792 5791 5790 5788 5787 5787 5786 5785 5784 5783 5782 5782 5782 5781 5781 5781 5781 5781 5781 5781 5780 5781 5781 5781 5781 5781 5782 5782 5782 5782 5782 5783 5783
5801 5800 5798 5797 5796 5794 5793 5791 5790 5788 5787 5785 5784 5783 5781 5781 5780 5779 5778 5777 5776 5776 5776 5776 5775 5775 5775 5775 5775 5775 5775 5775 5775 5775 5775 5776 5776 5776 5777 5777 5777 5778 5778
5796 5794 5793 5791 5790 5788 5787 5785 5784 5782 5781 5779 5778 5777 5775 5774 5773 5773 5772 5771 5771 5770 5770 5769 5769 5769 5769 5769 5769 5769 5769 5769 5769 5770 5770 5770 5770 5771 5771 5771 5772 5772 5773
5790 5788 5787 5785 5784 5782 5781 5779 5778 5776 5775 5773 5772 5770 5769 5768 5767 5766 5765 5765 5764 5764 5763 5763 5763 5762 5763 5763 5763 5763 5763 5763 5763 5763 5764 5764 5764 5765 5765 5765 5766 5766 5767
5784 5782 5780 5779 5777 5776 5775 5773 5772 5770 5768 5767 5765 5764 5763 5761 5760 5759 5759 5758 5758 5757 5757 5756 5756 5756 5756 5756 5756 5756 5756 5756 5756 5757 5757 5758 5758 5759 5759 5760 5760 5760 5761
5777 5775 5774 5772 5771 5769 5768 5766 5765 5763 5762 5760 5759 5757 5756 5754 5753 5752 5752 5751 5751 5750 5750 5750 5749 5749 5749 5749 5749 5749 5749 5750 5750 5750 5751 5751 5752 5752 5753 5753 5754 5754 5755
5770 5768 5766 5765 5763 5762 5761 5759 5758 5756 5755 5753 5752 5750 5749 5747 5746 5745 5744 5744 5743 5743 5743 5743 5742 5742 5742 5742 5742 5742 5742 5743 5743 5744 5744 5744 5744 5745 5746 5747 5747 5747 5748
5762 5760 5759 5757 5756 5754 5753 5752 5751 5749 5747 5746 5744 5742 5741 5739 5738 5737 5737 5736 5736 5736 5736 5735 5735 5734 5734 5735 5735 5735 5735 5736 5736 5736 5737 5737 5737 5737 5738 5739 5739 5740 5741
5754 5752 5751 5749 5748 5746 5745 5744 5742 5741 5739 5738 5736 5734 5732 5731 5730 5729 5729 5729 5729 5728 5728 5727 5727 5727 5727 5727 5727 5728 5728 5728 5728 5729 5729 5729 5729 5730 5730 5731 5732 5732 5733
5746 5744 5743 5741 5740 5738 5737 5735 5734 5732 5731 5729 5727 5725 5724 5722 5721 5721 5720 5720 5720 5720 5720 5720 5719 5719 5719 5719 5719 5720 5720 5720 5720 5721 5721 5721 5721 5722 5722 5723 5723 5724 5724
5737 5736 5734 5733 5731 5729 5728 5727 5725 5724 5722 5720 5718 5717 5715 5714 5713 5712 5711 5711 5711 5711 5711 5711 5711 5710 5710 5710 5711 5711 5711 5711 5712 5712 5712 5712 5713 5713 5714 5714 5714 5715 5715
5728 5727 5725 5723 5722 5720 5719 5717 5716 5714 5713 5711 5709 5708 5706 5705 5704 5703 5703 5702 5702 5702 5702 5702 5702 5701 5701 5701 5701 5701 5702 5702 5702 5703 5703 5704 5704 5704 5705 5705 5705 5705 5706
5719 5717 5715 5714 5712 5710 5709 5708 5706 5704 5703 5701 5700 5698 5697 5696 5695 5694 5693 5693 5693 5692 5692 5692 5692 5692 5692 5692 5691 5692 5692 5692 5692 5693 5693 5694 5694 5694 5695 5695 5695 5695 5695
5709 5707 5705 5704 5702 5701 5699 5698 5696 5695 5693 5691 5690 5689 5687 5686 5685 5684 5684 5684 5683 5683 5683 5682 5682 5682 5681 5682 5682 5681 5681 5682 5682 5682 5683 5683 5683 5684 5684 5684 5685 5685 5685
5700 5698 5696 5694 5692 5691 5689 5687 5686 5684 5683 5681 5680 5678 5677 5676 5675 5674 5673 5673 5672 5672 5672 5672 5671 5671 5671 5671 5671 5671 5671 5671 5671 5671 5671 5672 5672 5672 5673 5673 5673 5673 5673
5690 5688 5686 5685 5683 5681 5679 5677 5675 5674 5672 5671 5669 5668 5667 5666 5664 5663 5663 5662 5662 5661 5661 5661 5661 5660 5660 5660 5660 5660 5660 5660 5660 5660 5660 5660 5660 5660 5660 5660 5661 5661 5661
5681 5679 5677 5675 5673 5671 5669 5667 5666 5665 5663 5661 5659 5657 5656 5655 5654 5653 5652 5651 5651 5650 5650 5650 5649 5649 5649 5648 5648 5648 5648 5648 5648 5648 5648 5648 5648 5648 5648 5648 5648 5648 5648
5672 5670 5668 5665 5663 5661 5659 5657 5655 5654 5653 5651 5649 5647 5645 5644 5643 5642 5641 5640 5640 5639 5638 5638 5638 5637 5637 5637 5637 5637 5636 5636 5636 5636 5636 5636 5635 5635 5635 5635 5635 5635 5635
5663 5660 5658 5656 5653 5651 5649 5647 5645 5644 5642 5641 5639 5637 5635 5634 5633 5632 5630 5629 5628 5627 5627 5626 5626 5626 5625 5625 5625 5624 5624 5624 5623 5623 5623 5623 5623 5622 5622 5622 5622 5622 5622
5653 5651 5648 5646 5644 5642 5639 5638 5636 5634 5632 5631 5629 5627 5625 5624 5622 5621 5619 5618 5617 5616 5615 5615 5614 5614 5613 5613 5612 5612 5611 5611 5611 5611 5610 5610 5609 5609 5609 5609 5608 5608 5608
5644 5642 5639 5637 5635 5633 5631 5629 5627 5625 5623 5621 5620 5618 5615 5614 5612 5610 5609 5607 5605 5604 5603 5602 5602 5602 5601 5601 5600 5599 5599 5598 5598 5598 5597 5597 5596 5596 5595 5595 5595 5594 5594
5635 5632 5630 5628 5625 5623 5621 5619 5617 5615 5613 5611 5610 5608 5605 5603 5601 5599 5598 5596 5594 5592 5591 5591 5590 5590 5589 5588 5587 5587 5586 5586 5585 5584 5584 5583 5583 5582 5582 5581 5581 5581 5581
5625 5623 5621 5618 5616 5614 5612 5610 5608 5605 5603 5601 5599 5597 5595 5593 5590 5588 5587 5585 5583 5581 5580 5579 5578 5578 5577 5576 5575 5574 5573 5573 5572 5571 5571 5570 5569 5569 5568 5568 5568 5567 5568
5615 5613 5610 5608 5606 5604 5602 5600 5597 5595 5593 5591 5589 5587 5584 5582 5580 5578 5576 5574 5572 5571 5569 5568 5567 5566 5565 5564 5563 5562 5561 5560 5559 5558 5557 5556 5556 5555 5555 5554 5554 5555 5555
5605 5602 5600 5598 5596 5594 5592 5589 5587 5585 5583 5580 5578 5576 5574 5571 5569 5567 5565 5563 5561 5560 5558 5557 5555 5554 5553 5552 5551 5550 5549 5547 5546 5545 5544 5543 5543 5542 5542 5542 5542 5542 5542
5594 5592 5590 5588 5586 5583 5581 5579 5577 5575 5572 5570 5568 5565 5563 5561 5559 5557 5555 5553 5551 5549 5547 5546 5544 5543 5541 5540 5539 5538 5537 5535 5534 5532 5531 5531 5530 5530 5529 5529 5529 5529 5529